QPF
0.01 0.01 0.01 0.02 0.02 0.02 0.01 0.01 0.01 0.01 0.01 0.01 0.01 0.01 0.00 0.00 0.01 0.03 0.05 0.07 0.09 0.12 0.14 0.14 0.10 0.07 0.05 0.05 0.05 0.04 0.03 0.03 0.05 0.06 0.06 0.05 0.04 0.05 0.06 0.05 0.07 0.10 0.14
0.01 0.01 0.01 0.01 0.02 0.01 0.01 0.02 0.02 0.01 0.01 0.01 0.00 0.01 0.00 0.00 0.01 0.02 0.02 0.03 0.05 0.09 0.11 0.13 0.10 0.07 0.06 0.07 0.05 0.05 0.04 0.03 0.03 0.04 0.06 0.05 0.05 0.05 0.04 0.04 0.05 0.09 0.17
0.01 0.01 0.01 0.01 0.01 0.01 0.01 0.02 0.01 0.00 0.00 0.00 0.01 0.01 0.01 0.02 0.02 0.01 0.01 0.01 0.01 0.04 0.06 0.08 0.09 0.07 0.06 0.09 0.08 0.07 0.05 0.04 0.03 0.04 0.07 0.06 0.04 0.04 0.04 0.05 0.05 0.07 0.13
0.01 0.01 0.01 0.01 0.01 0.01 0.01 0.01 0.01 0.01 0.00 0.01 0.01 0.01 0.02 0.03 0.02 0.01 0.01 0.01 0.01 0.01 0.02 0.04 0.06 0.07 0.06 0.06 0.06 0.07 0.05 0.04 0.04 0.06 0.06 0.06 0.06 0.06 0.07 0.07 0.07 0.07 0.09
0.00 0.01 0.01 0.01 0.01 0.01 0.01 0.02 0.01 0.01 0.01 0.02 0.02 0.02 0.03 0.03 0.01 0.01 0.00 0.00 0.00 0.00 0.01 0.02 0.04 0.06 0.07 0.06 0.06 0.06 0.06 0.05 0.04 0.06 0.08 0.08 0.07 0.08 0.06 0.06 0.06 0.05 0.07
0.01 0.01 0.01 0.01 0.02 0.01 0.01 0.01 0.01 0.01 0.02 0.03 0.03 0.04 0.03 0.01 0.00 0.00 0.00 0.00 0.01 0.01 0.01 0.02 0.02 0.04 0.06 0.06 0.07 0.08 0.10 0.08 0.08 0.08 0.07 0.06 0.06 0.07 0.06 0.05 0.05 0.05 0.06
0.00 0.01 0.01 0.01 0.01 0.02 0.01 0.01 0.02 0.03 0.03 0.03 0.04 0.03 0.02 0.01 0.01 0.00 0.00 0.00 0.00 0.01 0.02 0.02 0.02 0.02 0.03 0.04 0.06 0.08 0.10 0.13 0.14 0.12 0.09 0.09 0.07 0.06 0.05 0.04 0.04 0.04 0.04
0.00 0.00 0.00 0.01 0.01 0.01 0.01 0.01 0.02 0.02 0.03 0.02 0.01 0.01 0.01 0.01 0.01 0.01 0.00 0.00 0.00 0.01 0.01 0.01 0.02 0.02 0.01 0.01 0.03 0.06 0.10 0.12 0.14 0.14 0.12 0.13 0.10 0.09 0.08 0.06 0.05 0.05 0.04
0.00 0.00 0.00 0.00 0.01 0.01 0.01 0.01 0.02 0.01 0.01 0.01 0.01 0.01 0.01 0.01 0.02 0.01 0.00 0.01 0.01 0.01 0.01 0.01 0.02 0.02 0.01 0.02 0.03 0.06 0.09 0.12 0.12 0.12 0.10 0.10 0.10 0.10 0.07 0.05 0.04 0.04 0.04
0.00 0.00 0.00 0.01 0.01 0.02 0.01 0.01 0.01 0.02 0.01 0.01 0.01 0.01 0.01 0.01 0.01 0.02 0.01 0.00 0.00 0.01 0.01 0.02 0.03 0.04 0.03 0.04 0.07 0.09 0.08 0.09 0.09 0.09 0.09 0.08 0.07 0.06 0.06 0.05 0.03 0.02 0.02
0.00 0.00 0.00 0.00 0.01 0.01 0.01 0.01 0.01 0.01 0.01 0.01 0.01 0.02 0.02 0.02 0.01 0.01 0.01 0.00 0.00 0.01 0.01 0.01 0.02 0.03 0.04 0.06 0.09 0.08 0.07 0.06 0.06 0.07 0.07 0.07 0.08 0.08 0.06 0.05 0.04 0.04 0.03
0.00 0.00 0.01 0.01 0.01 0.01 0.01 0.02 0.02 0.02 0.02 0.02 0.02 0.03 0.03 0.02 0.01 0.01 0.01 0.01 0.00 0.00 0.00 0.01 0.01 0.02 0.02 0.03 0.05 0.05 0.05 0.03 0.03 0.03 0.04 0.05 0.07 0.07 0.05 0.04 0.04 0.04 0.04
0.01 0.01 0.01 0.01 0.01 0.01 0.02 0.02 0.03 0.03 0.03 0.04 0.04 0.04 0.03 0.02 0.02 0.02 0.02 0.01 0.01 0.00 0.00 0.00 0.00 0.01 0.01 0.01 0.02 0.02 0.02 0.02 0.02 0.02 0.04 0.06 0.06 0.05 0.04 0.04 0.04 0.03 0.03
0.01 0.01 0.01 0.01 0.01 0.01 0.01 0.01 0.01 0.02 0.03 0.03 0.03 0.04 0.04 0.03 0.03 0.04 0.03 0.02 0.01 0.01 0.01 0.00 0.00 0.00 0.00 0.00 0.01 0.01 0.01 0.02 0.02 0.02 0.01 0.02 0.03 0.03 0.04 0.06 0.07 0.05 0.04
0.01 0.01 0.01 0.01 0.01 0.01 0.01 0.01 0.01 0.01 0.01 0.01 0.01 0.01 0.02 0.03 0.04 0.05 0.05 0.05 0.03 0.02 0.01 0.01 0.00 0.00 0.00 0.00 0.00 0.00 0.00 0.01 0.01 0.01 0.02 0.01 0.00 0.01 0.02 0.03 0.05 0.03 0.03
0.03 0.02 0.01 0.01 0.01 0.01 0.01 0.01 0.01 0.00 0.00 0.00 0.01 0.01 0.01 0.02 0.01 0.02 0.03 0.04 0.04 0.03 0.01 0.01 0.00 0.00 0.00 0.00 0.00 0.00 0.00 0.01 0.01 0.01 0.01 0.01 0.01 0.00 0.00 0.01 0.02 0.02 0.02
0.04 0.03 0.03 0.03 0.02 0.02 0.01 0.01 0.01 0.01 0.00 0.00 0.00 0.01 0.01 0.02 0.02 0.03 0.04 0.04 0.04 0.04 0.02 0.01 0.00 0.00 0.00 0.00 0.00 0.00 0.00 0.00 0.01 0.01 0.01 0.01 0.00 0.00 0.00 0.01 0.01 0.02 0.02
0.04 0.04 0.03 0.02 0.02 0.02 0.02 0.01 0.01 0.01 0.01 0.00 0.00 0.00 0.01 0.01 0.01 0.01 0.02 0.02 0.03 0.03 0.02 0.00 0.00 0.01 0.01 0.01 0.00 0.00 0.00 0.00 0.00 0.01 0.01 0.01 0.01 0.01 0.01 0.01 0.01 0.01 0.01
0.03 0.03 0.03 0.03 0.02 0.02 0.01 0.01 0.01 0.01 0.01 0.00 0.00 0.01 0.01 0.02 0.02 0.03 0.03 0.03 0.03 0.03 0.03 0.01 0.00 0.01 0.02 0.01 0.01 0.01 0.00 0.00 0.00 0.01 0.01 0.01 0.02 0.01 0.01 0.02 0.01 0.01 0.01
0.03 0.03 0.03 0.03 0.02 0.02 0.01 0.01 0.00 0.01 0.00 0.00 0.00 0.00 0.01 0.02 0.03 0.04 0.04 0.04 0.03 0.03 0.03 0.02 0.01 0.01 0.02 0.02 0.02 0.01 0.01 0.01 0.01 0.02 0.04 0.03 0.03 0.03 0.03 0.02 0.01 0.01 0.01
0.04 0.04 0.04 0.03 0.02 0.01 0.01 0.01 0.00 0.00 0.00 0.00 0.00 0.00 0.00 0.00 0.01 0.02 0.02 0.02 0.02 0.02 0.02 0.03 0.01 0.01 0.00 0.01 0.01 0.00 0.00 0.00 0.00 0.01 0.02 0.03 0.03 0.02 0.01 0.00 0.00 0.00 0.00
0.05 0.04 0.04 0.04 0.03 0.02 0.02 0.01 0.01 0.00 0.00 0.00 0.00 0.00 0.00 0.00 0.00 0.00 0.00 0.01 0.01 0.01 0.01 0.02 0.02 0.01 0.00 0.00 0.00 0.00 0.00 0.00 0.01 0.00 0.01 0.01 0.01 0.01 0.00 0.00 0.00 0.00 0.00
0.04 0.04 0.04 0.04 0.03 0.03 0.03 0.02 0.01 0.01 0.00 0.00 0.00 0.00 0.01 0.01 0.01 0.00 0.00 0.01 0.01 0.01 0.01 0.01 0.02 0.02 0.01 0.00 0.00 0.00 0.00 0.00 0.01 0.01 0.01 0.01 0.00 0.00 0.00 0.00 0.00 0.00 0.00
0.06 0.05 0.05 0.05 0.04 0.05 0.04 0.03 0.02 0.02 0.01 0.01 0.01 0.01 0.01 0.01 0.01 0.01 0.01 0.01 0.01 0.01 0.01 0.01 0.01 0.02 0.02 0.01 0.01 0.01 0.01 0.01 0.01 0.01 0.01 0.01 0.00 0.00 0.00 0.00 0.00 0.00 0.00
0.06 0.07 0.05 0.05 0.04 0.04 0.05 0.04 0.03 0.03 0.03 0.02 0.01 0.01 0.02 0.01 0.01 0.01 0.01 0.00 0.01 0.01 0.01 0.01 0.01 0.01 0.02 0.01 0.01 0.01 0.01 0.01 0.01 0.00 0.00 0.00 0.00 0.00 0.00 0.00 0.00 0.00 0.00
0.05 0.04 0.04 0.04 0.02 0.02 0.03 0.02 0.02 0.02 0.02 0.02 0.01 0.01 0.02 0.02 0.01 0.01 0.01 0.01 0.01 0.01 0.01 0.01 0.01 0.01 0.01 0.01 0.01 0.00 0.00 0.00 0.00 0.00 0.00 0.00 0.00 0.00 0.00 0.00 0.00 0.00 0.00
MSLP
1016.87 1017.14 1017.33 1017.45 1017.53 1017.59 1017.68 1017.79 1017.95 1018.13 1018.31 1018.45 1018.51 1018.48 1018.33 1018.07 1017.73 1017.31 1016.87 1016.44 1016.04 1015.69 1015.41 1015.19 1015.04 1014.95 1014.92 1014.92 1014.95 1014.99 1015.05 1015.10 1015.15 1015.19 1015.23 1015.28 1015.34 1015.42 1015.53 1015.66 1015.80 1015.96 1016.11
1017.18 1017.48 1017.72 1017.89 1018.02 1018.13 1018.24 1018.38 1018.54 1018.73 1018.90 1019.04 1019.11 1019.09 1018.96 1018.73 1018.39 1018.00 1017.56 1017.12 1016.70 1016.32 1016.00 1015.73 1015.53 1015.38 1015.28 1015.21 1015.18 1015.16 1015.15 1015.14 1015.14 1015.14 1015.15 1015.17 1015.23 1015.31 1015.43 1015.58 1015.76 1015.95 1016.14
1017.41 1017.76 1018.05 1018.29 1018.48 1018.65 1018.81 1018.97 1019.14 1019.33 1019.50 1019.64 1019.72 1019.71 1019.61 1019.41 1019.12 1018.76 1018.35 1017.92 1017.50 1017.10 1016.73 1016.42 1016.15 1015.94 1015.76 1015.62 1015.50 1015.40 1015.31 1015.23 1015.15 1015.09 1015.05 1015.03 1015.07 1015.15 1015.28 1015.46 1015.68 1015.92 1016.16
1017.60 1017.99 1018.35 1018.65 1018.92 1019.15 1019.36 1019.55 1019.74 1019.92 1020.08 1020.21 1020.30 1020.31 1020.24 1020.09 1019.86 1019.55 1019.19 1018.79 1018.37 1017.97 1017.58 1017.22 1016.89 1016.60 1016.35 1016.12 1015.91 1015.72 1015.53 1015.36 1015.20 1015.06 1014.96 1014.90 1014.91 1014.98 1015.11 1015.32 1015.57 1015.86 1016.16
1017.79 1018.21 1018.62 1018.99 1019.33 1019.62 1019.88 1020.09 1020.29 1020.46 1020.61 1020.73 1020.82 1020.85 1020.83 1020.73 1020.57 1020.33 1020.02 1019.67 1019.29 1018.89 1018.48 1018.09 1017.71 1017.36 1017.03 1016.72 1016.42 1016.13 1015.86 1015.60 1015.35 1015.14 1014.97 1014.86 1014.82 1014.87 1015.00 1015.22 1015.50 1015.83 1016.18
1018.02 1018.45 1018.89 1019.32 1019.71 1020.05 1020.34 1020.57 1020.77 1020.93 1021.06 1021.17 1021.25 1021.31 1021.33 1021.30 1021.21 1021.05 1020.83 1020.54 1020.20 1019.82 1019.42 1019.01 1018.59 1018.19 1017.80 1017.41 1017.04 1016.68 1016.32 1015.98 1015.66 1015.37 1015.14 1014.98 1014.90 1014.92 1015.04 1015.25 1015.53 1015.88 1016.26
1018.30 1018.72 1019.17 1019.62 1020.04 1020.41 1020.72 1020.96 1021.14 1021.28 1021.40 1021.50 1021.59 1021.67 1021.74 1021.78 1021.77 1021.70 1021.57 1021.35 1021.08 1020.74 1020.36 1019.95 1019.52 1019.08 1018.65 1018.22 1017.79 1017.37 1016.96 1016.56 1016.18 1015.84 1015.56 1015.35 1015.23 1015.21 1015.30 1015.48 1015.75 1016.09 1016.47
1018.64 1019.03 1019.46 1019.91 1020.33 1020.70 1021.00 1021.24 1021.40 1021.52 1021.62 1021.71 1021.82 1021.93 1022.05 1022.16 1022.24 1022.26 1022.22 1022.10 1021.89 1021.61 1021.27 1020.88 1020.46 1020.01 1019.56 1019.11 1018.65 1018.20 1017.76 1017.33 1016.93 1016.56 1016.25 1016.01 1015.85 1015.80 1015.84 1015.99 1016.22 1016.52 1016.86
1019.03 1019.36 1019.76 1020.17 1020.57 1020.92 1021.20 1021.41 1021.56 1021.66 1021.74 1021.83 1021.95 1022.10 1022.27 1022.45 1022.61 1022.73 1022.77 1022.74 1022.61 1022.40 1022.11 1021.76 1021.37 1020.94 1020.50 1020.05 1019.59 1019.14 1018.69 1018.27 1017.86 1017.50 1017.18 1016.93 1016.76 1016.68 1016.69 1016.78 1016.95 1017.19 1017.48
1019.41 1019.69 1020.03 1020.40 1020.76 1021.07 1021.32 1021.50 1021.62 1021.71 1021.78 1021.88 1022.01 1022.19 1022.41 1022.65 1022.88 1023.08 1023.21 1023.25 1023.20 1023.06 1022.83 1022.53 1022.18 1021.79 1021.38 1020.95 1020.52 1020.09 1019.67 1019.27 1018.90 1018.56 1018.28 1018.04 1017.88 1017.78 1017.76 1017.80 1017.91 1018.08 1018.30
1019.76 1019.99 1020.28 1020.60 1020.91 1021.18 1021.39 1021.54 1021.64 1021.71 1021.79 1021.89 1022.04 1022.24 1022.50 1022.78 1023.06 1023.31 1023.50 1023.61 1023.63 1023.55 1023.39 1023.15 1022.85 1022.50 1022.13 1021.75 1021.35 1020.97 1020.59 1020.24 1019.92 1019.63 1019.39 1019.20 1019.06 1018.98 1018.94 1018.95 1019.01 1019.10 1019.24
1020.04 1020.24 1020.49 1020.76 1021.02 1021.25 1021.43 1021.56 1021.65 1021.71 1021.78 1021.89 1022.05 1022.27 1022.54 1022.84 1023.15 1023.44 1023.66 1023.82 1023.88 1023.85 1023.74 1023.56 1023.31 1023.02 1022.70 1022.36 1022.01 1021.67 1021.35 1021.05 1020.79 1020.57 1020.40 1020.27 1020.18 1020.13 1020.10 1020.10 1020.12 1020.16 1020.23
1020.22 1020.41 1020.63 1020.87 1021.10 1021.31 1021.47 1021.58 1021.66 1021.73 1021.80 1021.91 1022.08 1022.30 1022.57 1022.87 1023.17 1023.46 1023.70 1023.87 1023.96 1023.97 1023.90 1023.77 1023.57 1023.33 1023.06 1022.76 1022.46 1022.17 1021.89 1021.65 1021.45 1021.30 1021.20 1021.13 1021.11 1021.10 1021.10 1021.11 1021.12 1021.12 1021.14
1020.31 1020.49 1020.71 1020.94 1021.15 1021.35 1021.50 1021.61 1021.70 1021.77 1021.85 1021.97 1022.13 1022.34 1022.59 1022.87 1023.15 1023.41 1023.63 1023.80 1023.90 1023.93 1023.90 1023.81 1023.66 1023.46 1023.23 1022.98 1022.72 1022.46 1022.22 1022.02 1021.87 1021.77 1021.73 1021.73 1021.76 1021.81 1021.85 1021.89 1021.90 1021.89 1021.89
1020.32 1020.51 1020.73 1020.96 1021.18 1021.37 1021.53 1021.65 1021.75 1021.84 1021.94 1022.06 1022.21 1022.41 1022.63 1022.87 1023.11 1023.33 1023.52 1023.67 1023.77 1023.81 1023.80 1023.74 1023.64 1023.48 1023.29 1023.07 1022.84 1022.61 1022.39 1022.21 1022.09 1022.02 1022.01 1022.05 1022.13 1022.22 1022.30 1022.37 1022.40 1022.40 1022.39
1020.27 1020.48 1020.71 1020.94 1021.16 1021.37 1021.54 1021.69 1021.81 1021.92 1022.04 1022.17 1022.32 1022.49 1022.68 1022.88 1023.08 1023.25 1023.40 1023.53 1023.61 1023.66 1023.68 1023.65 1023.58 1023.47 1023.32 1023.13 1022.92 1022.70 1022.49 1022.31 1022.18 1022.11 1022.11 1022.16 1022.25 1022.36 1022.47 1022.55 1022.60 1022.62 1022.61
1020.19 1020.41 1020.64 1020.88 1021.12 1021.34 1021.53 1021.70 1021.85 1021.99 1022.12 1022.26 1022.42 1022.58 1022.74 1022.91 1023.06 1023.20 1023.32 1023.41 1023.49 1023.55 1023.59 1023.60 1023.57 1023.50 1023.39 1023.23 1023.03 1022.81 1022.59 1022.39 1022.24 1022.14 1022.10 1022.12 1022.18 1022.28 1022.38 1022.46 1022.52 1022.54 1022.55
1020.12 1020.33 1020.56 1020.81 1021.05 1021.27 1021.48 1021.67 1021.84 1022.01 1022.17 1022.33 1022.49 1022.64 1022.80 1022.93 1023.06 1023.17 1023.26 1023.34 1023.42 1023.49 1023.55 1023.59 1023.61 1023.58 1023.51 1023.38 1023.20 1022.99 1022.75 1022.52 1022.31 1022.15 1022.05 1022.01 1022.01 1022.05 1022.11 1022.17 1022.21 1022.23 1022.24
1020.06 1020.26 1020.49 1020.72 1020.96 1021.18 1021.40 1021.59 1021.78 1021.97 1022.14 1022.32 1022.49 1022.66 1022.80 1022.93 1023.04 1023.13 1023.21 1023.28 1023.36 1023.44 1023.52 1023.60 1023.66 1023.68 1023.65 1023.56 1023.40 1023.19 1022.94 1022.68 1022.42 1022.19 1022.01 1021.88 1021.80 1021.75 1021.74 1021.74 1021.74 1021.74 1021.74
1020.02 1020.22 1020.43 1020.65 1020.87 1021.08 1021.28 1021.48 1021.67 1021.86 1022.05 1022.24 1022.42 1022.59 1022.74 1022.86 1022.97 1023.05 1023.12 1023.18 1023.26 1023.35 1023.45 1023.56 1023.65 1023.72 1023.73 1023.67 1023.55 1023.36 1023.10 1022.82 1022.52 1022.22 1021.96 1021.74 1021.56 1021.42 1021.32 1021.24 1021.19 1021.15 1021.13
1020.01 1020.20 1020.40 1020.60 1020.79 1020.97 1021.15 1021.33 1021.50 1021.69 1021.88 1022.07 1022.25 1022.43 1022.58 1022.71 1022.81 1022.88 1022.94 1023.00 1023.07 1023.16 1023.27 1023.39 1023.51 1023.60 1023.65 1023.64 1023.55 1023.39 1023.15 1022.87 1022.54 1022.21 1021.88 1021.58 1021.31 1021.08 1020.89 1020.74 1020.62 1020.53 1020.47
1020.01 1020.20 1020.38 1020.56 1020.72 1020.87 1021.02 1021.16 1021.30 1021.47 1021.64 1021.82 1022.00 1022.18 1022.33 1022.45 1022.54 1022.60 1022.65 1022.69 1022.74 1022.81 1022.91 1023.03 1023.16 1023.27 1023.35 1023.38 1023.34 1023.22 1023.02 1022.76 1022.45 1022.10 1021.75 1021.40 1021.07 1020.77 1020.51 1020.28 1020.09 1019.95 1019.85
1019.97 1020.18 1020.36 1020.52 1020.65 1020.77 1020.87 1020.97 1021.08 1021.20 1021.35 1021.52 1021.69 1021.85 1021.99 1022.10 1022.18 1022.22 1022.25 1022.26 1022.28 1022.32 1022.39 1022.49 1022.61 1022.73 1022.83 1022.89 1022.90 1022.83 1022.69 1022.48 1022.21 1021.89 1021.55 1021.19 1020.84 1020.51 1020.20 1019.92 1019.68 1019.49 1019.34
1019.88 1020.10 1020.29 1020.44 1020.55 1020.63 1020.69 1020.75 1020.82 1020.91 1021.03 1021.17 1021.32 1021.47 1021.60 1021.70 1021.76 1021.79 1021.78 1021.76 1021.74 1021.73 1021.76 1021.83 1021.92 1022.03 1022.14 1022.23 1022.29 1022.28 1022.21 1022.07 1021.87 1021.62 1021.32 1021.00 1020.67 1020.33 1020.01 1019.71 1019.44 1019.21 1019.03
1019.69 1019.94 1020.13 1020.27 1020.37 1020.42 1020.45 1020.48 1020.52 1020.58 1020.67 1020.80 1020.93 1021.08 1021.20 1021.29 1021.34 1021.35 1021.32 1021.27 1021.21 1021.17 1021.15 1021.17 1021.24 1021.33 1021.44 1021.55 1021.64 1021.69 1021.69 1021.64 1021.52 1021.35 1021.13 1020.87 1020.59 1020.29 1019.98 1019.68 1019.40 1019.15 1018.93
1019.36 1019.63 1019.84 1019.98 1020.07 1020.11 1020.12 1020.13 1020.15 1020.20 1020.28 1020.40 1020.54 1020.69 1020.81 1020.91 1020.97 1020.98 1020.94 1020.88 1020.80 1020.73 1020.68 1020.67 1020.70 1020.78 1020.88 1021.00 1021.12 1021.22 1021.28 1021.30 1021.27 1021.18 1021.04 1020.86 1020.64 1020.39 1020.12 1019.84 1019.57 1019.30 1019.05
Thickness
5714 5712 5712 5711 5710 5710 5710 5709 5707 5706 5705 5705 5704 5703 5703 5703 5703 5703 5704 5705 5706 5707 5707 5708 5708 5708 5707 5707 5706 5706 5706 5706 5706 5705 5705 5705 5706 5706 5706 5706 5706 5707 5707
5711 5709 5708 5707 5706 5706 5705 5704 5703 5701 5700 5699 5698 5698 5698 5698 5698 5698 5699 5699 5700 5701 5702 5703 5703 5703 5703 5703 5702 5702 5702 5701 5701 5701 5701 5701 5701 5701 5701 5701 5702 5702 5702
5708 5706 5705 5703 5702 5702 5701 5700 5698 5697 5696 5694 5693 5693 5692 5692 5692 5693 5693 5694 5694 5695 5696 5697 5698 5698 5698 5698 5698 5697 5697 5696 5696 5696 5696 5696 5696 5696 5696 5696 5696 5696 5697
5705 5703 5701 5700 5699 5698 5697 5695 5693 5692 5689 5688 5687 5687 5687 5687 5687 5687 5688 5688 5689 5689 5690 5691 5692 5692 5693 5693 5693 5693 5693 5692 5692 5691 5691 5691 5691 5691 5691 5691 5691 5691 5692
5701 5700 5698 5696 5695 5694 5692 5691 5689 5687 5684 5683 5682 5682 5681 5681 5681 5681 5682 5682 5683 5683 5684 5685 5686 5687 5687 5688 5688 5688 5688 5688 5687 5686 5686 5686 5686 5686 5686 5686 5686 5686 5686
5698 5697 5695 5693 5692 5690 5688 5686 5684 5682 5680 5679 5679 5676 5675 5675 5675 5675 5676 5676 5677 5678 5678 5679 5680 5681 5682 5683 5683 5684 5683 5683 5682 5682 5682 5681 5681 5681 5680 5680 5680 5680 5680
5695 5694 5692 5690 5689 5687 5684 5683 5680 5678 5675 5675 5673 5670 5669 5670 5670 5669 5670 5670 5671 5672 5673 5673 5674 5675 5676 5677 5678 5678 5678 5678 5678 5678 5677 5676 5675 5675 5675 5674 5674 5674 5674
5692 5691 5689 5687 5686 5683 5681 5679 5677 5674 5672 5671 5668 5665 5662 5661 5663 5664 5664 5665 5665 5666 5666 5667 5668 5669 5670 5671 5671 5672 5672 5672 5672 5672 5671 5670 5670 5669 5669 5668 5668 5668 5668
5689 5688 5687 5685 5683 5681 5678 5677 5675 5673 5669 5667 5667 5664 5659 5656 5656 5657 5658 5658 5659 5660 5660 5661 5662 5663 5664 5665 5665 5666 5666 5667 5667 5667 5666 5665 5664 5663 5663 5663 5662 5662 5662
5686 5686 5684 5683 5681 5679 5676 5675 5674 5672 5669 5665 5664 5663 5661 5659 5654 5651 5652 5653 5653 5654 5654 5655 5656 5657 5658 5659 5660 5660 5661 5661 5661 5660 5660 5659 5658 5658 5657 5657 5657 5656 5656
5683 5683 5682 5680 5678 5676 5675 5673 5671 5670 5667 5665 5662 5659 5657 5655 5654 5650 5646 5646 5647 5648 5649 5649 5650 5651 5652 5653 5654 5654 5654 5654 5655 5654 5654 5654 5653 5652 5652 5651 5651 5650 5650
5679 5679 5678 5677 5675 5674 5672 5671 5669 5667 5665 5663 5661 5659 5656 5654 5651 5648 5644 5641 5641 5642 5643 5644 5645 5646 5647 5647 5648 5648 5648 5648 5648 5648 5648 5647 5647 5647 5646 5646 5645 5644 5644
5675 5675 5675 5674 5672 5671 5670 5668 5666 5664 5662 5660 5658 5657 5655 5654 5652 5648 5644 5640 5638 5637 5638 5639 5640 5641 5642 5642 5642 5643 5643 5642 5642 5642 5641 5641 5641 5641 5640 5640 5639 5639 5638
5674 5673 5672 5671 5669 5668 5667 5665 5663 5661 5659 5657 5656 5654 5652 5651 5650 5648 5644 5639 5635 5633 5633 5634 5635 5636 5637 5637 5637 5637 5637 5637 5636 5636 5636 5636 5636 5635 5634 5634 5634 5633 5632
5671 5670 5669 5667 5665 5664 5663 5661 5659 5657 5655 5654 5652 5651 5649 5648 5647 5645 5644 5641 5637 5631 5629 5630 5630 5632 5632 5632 5632 5632 5632 5631 5631 5631 5631 5630 5630 5630 5629 5629 5628 5627 5627
5668 5667 5665 5664 5662 5660 5658 5657 5655 5653 5651 5649 5648 5647 5646 5644 5643 5641 5640 5638 5636 5633 5627 5627 5626 5627 5627 5628 5628 5628 5627 5627 5626 5626 5626 5625 5625 5625 5624 5623 5622 5622 5621
5665 5663 5662 5660 5658 5656 5654 5652 5650 5649 5646 5645 5643 5642 5641 5640 5638 5636 5635 5633 5631 5629 5625 5622 5622 5622 5622 5622 5623 5623 5622 5622 5621 5621 5621 5620 5620 5619 5619 5618 5617 5616 5615
5662 5660 5658 5656 5654 5652 5650 5648 5646 5644 5642 5640 5639 5638 5636 5635 5633 5632 5630 5628 5627 5625 5623 5619 5617 5617 5617 5617 5617 5617 5617 5617 5616 5616 5616 5615 5614 5614 5613 5612 5611 5610 5608
5657 5656 5654 5652 5650 5648 5646 5644 5642 5640 5638 5636 5635 5634 5632 5630 5629 5627 5625 5624 5622 5622 5619 5616 5613 5612 5612 5612 5612 5612 5612 5612 5612 5611 5611 5610 5609 5608 5607 5606 5605 5604 5603
5653 5652 5650 5649 5647 5645 5642 5640 5638 5636 5634 5632 5631 5630 5628 5627 5625 5624 5622 5620 5618 5615 5613 5610 5608 5607 5607 5606 5606 5606 5605 5605 5605 5606 5605 5604 5603 5602 5601 5600 5599 5598 5597
5649 5648 5646 5644 5643 5641 5639 5637 5635 5632 5630 5628 5627 5626 5625 5624 5623 5622 5620 5617 5614 5611 5608 5606 5603 5602 5601 5601 5601 5600 5600 5599 5599 5599 5599 5598 5597 5597 5596 5595 5594 5593 5592
5643 5642 5641 5640 5638 5638 5636 5634 5631 5628 5626 5624 5622 5621 5621 5620 5620 5619 5618 5616 5613 5610 5606 5603 5600 5599 5599 5598 5597 5596 5594 5594 5594 5594 5593 5592 5591 5591 5591 5590 5589 5588 5586
5638 5636 5636 5634 5633 5633 5633 5631 5628 5624 5621 5619 5618 5617 5617 5617 5616 5614 5612 5611 5609 5607 5606 5603 5600 5598 5597 5596 5594 5592 5590 5590 5590 5589 5587 5586 5585 5585 5585 5584 5583 5582 5581
5632 5631 5630 5630 5629 5628 5628 5626 5624 5620 5617 5615 5614 5613 5612 5611 5610 5609 5607 5604 5603 5602 5601 5600 5599 5597 5596 5594 5592 5591 5588 5585 5583 5582 5582 5580 5579 5578 5579 5579 5578 5576 5575
5626 5626 5626 5624 5623 5623 5623 5621 5619 5614 5612 5610 5609 5608 5607 5606 5606 5605 5602 5599 5597 5596 5596 5595 5594 5592 5591 5590 5587 5584 5582 5580 5578 5577 5575 5574 5573 5571 5572 5572 5571 5570 5569
5621 5620 5619 5618 5618 5617 5617 5616 5614 5610 5607 5605 5604 5603 5603 5602 5602 5600 5597 5595 5592 5591 5590 5588 5587 5586 5585 5583 5582 5580 5579 5576 5573 5571 5570 5568 5566 5564 5565 5565 5564 5563 5562